Regional Weather Roundup
Issued by NWS

Home | Current Version | Previous Version | Text Only | Print | Product List | Glossary Off
Versions: 1 2 3 4 5 6 7 8 9 10 11 12 13 14 15 16 17 18 19 20 21 22 23 24 25 26 27 28 29 30 31 32 33 34 35 36 37 38 39 40 41 42 43 44 45 46 47 48 49

000
ASUS45 KBOU 171507
RWRCO

WEATHER ROUNDUP FOR COLORADO
NATIONAL WEATHER SERVICE DENVER/BOULDER CO
800 AM MST WED DEC 17 2014

NOTE: "FAIR" INDICATES FEW OR NO CLOUDS BELOW 12000 FEET WITH NO
SIGNIFICANT WEATHER AND/OR OBSTRUCTIONS TO VISIBILITY.

COZ001>005-013-030-031-171600-
...NORTHWEST COLORADO...

CITY           SKY/WX    TMP DP  RH WIND       PRES   REMARKS
CRAIG          CLOUDY    16  14  92 CALM      30.01S FOG
HAYDEN         MOCLDY    21  19  93 SE6       29.99S WCI  14
MEEKER         LGT SNOW  28  25  88 CALM      29.99F FOG
MOUNT WERNER   NOT AVBL
STEAMBOAT SPGS CLOUDY    22  21  94 CALM      30.00S
WALDEN         CLOUDY    14  12  92 CALM      29.98S VSB 1
$$

COZ006>008-011-171600-
...WEST CENTRAL VALLEYS...

CITY           SKY/WX    TMP DP  RH WIND       PRES   REMARKS
GRAND JUNCTION CLOUDY    31  30  96 SE6       30.01F FOG     WCI  25
MONTROSE       CLOUDY    30  26  85 CALM      30.03S
EAGLE          LGT SNOW  18  16  93 CALM      30.08S FOG
RIFLE          LGT SNOW  28  26  92 CALM      30.03S FOG
DELTA          LGT SNOW  33  32  95 CALM      30.02F
NUCLA          CLOUDY    32  28  86 SE3       30.03R
$$

COZ017>023-064>068-171600-
...SOUTHWEST COLORADO...

CITY           SKY/WX    TMP DP  RH WIND       PRES   REMARKS
DURANGO        CLOUDY    30  25  81 NE5       29.98S WCI  25
CORTEZ         CLOUDY    31  28  89 CALM      29.98S
PAGOSA SPRINGS CLOUDY    27  25  92 CALM      29.99F
TELLURIDE      CLOUDY    28  21  77 CALM      30.00S
WOLF CREEK PAS   N/A     18  14  86 MISG      30.02S
$$

COZ009-010-012-014-032>034-037-058>063-171600-
...CENTRAL COLORADO...

CITY           SKY/WX    TMP DP  RH WIND       PRES   REMARKS
ASPEN          MOCLDY    18  15  88 S6        29.98F WCI  10
BUENA VISTA    CLOUDY    21  14  72 NW5       30.01F WCI  15
COPPER MTN     MOCLDY    23  14  68 S7        30.00F WCI  15
BERTHOUD PASS  LGT SNOW  12   7  79 MISG      30.02S
COTTONWOOD PAS CLOUDY    28  18  64 NW3       30.00S
GUNNISON       MOCLDY    14   9  79 NE3       30.07F
KREMMLING      SNOW     N/A N/A N/A CALM      30.06S VSB 1/2
LEADVILLE      CLOUDY    14  10  84 CALM      29.99S
MONARCH PASS   FLURRIES  16  12  86 MISG      30.11S
SALIDA         CLOUDY    26  15  65 NW3       30.09S
SUNLIGHT       LGT SNOW  23  21  93 CALM      30.01F
WILKERSON PASS MOCLDY    19  14  79 W6        30.03S WCI  11
$$

COZ069>075-171600-
...SAN LUIS VALLEY/SANGRE DE CRISTO MOUNTAINS...

CITY           SKY/WX    TMP DP  RH WIND       PRES   REMARKS
ALAMOSA        CLOUDY    19  13  77 CALM      30.01F
LA VETA PASS   CLOUDY    23  14  68 S6        30.01S WCI  16
SAGUACHE       CLOUDY    27  14  59 NW9       30.02F WCI  17
$$

COZ035-036-038>040-171600-
...NORTHERN COLORADO FRONT RANGE...

CITY           SKY/WX    TMP DP  RH WIND       PRES   REMARKS
DENVER INTL AP CLOUDY    23  18  81 CALM      29.97S
DMNS CITY PARK   N/A     23  21  89 N1        29.97S
AURORA         MOCLDY    25  19  76 CALM      29.97S
FRONT RANGE AP NOT AVBL
ERIE MUNI ARPT   N/A     21  20  94 MISG      29.98F
BOULDER MUN AP MOCLDY    25  23  93 CALM      29.97F
CENTENNIAL     CLOUDY    27  19  72 CALM      29.95S
BROOMFIELD     CLOUDY    27  23  86 CALM      29.97S
FORT COLLINS   CLOUDY    19  16  86 CALM      30.00S
LONGMONT       CLOUDY    22  19  89 CALM      30.00F
$$

COZ041-046-047-076>085-087-088-171600-
...PIKES PEAK/PALMER DIVIDE AND SOUTHERN FOOTHILLS...

CITY           SKY/WX    TMP DP  RH WIND       PRES   REMARKS
COLO. SPRINGS  CLOUDY    34  19  54 NW8       29.97R WCI  27
A. F. ACADEMY  CLOUDY    29  19  67 N6        29.96R WCI  23
ELLICOTT       NOT AVBL
FALCON         CLOUDY    35  21  58 N7        29.97R WCI  29
FORT CARSON    CLOUDY    29  20  69 NW6       29.95R WCI  23
LIMON          CLOUDY    19  16  88 NW3       29.97S
MONUMENT HILL  CLOUDY    28  19  69 CALM      29.95S
TRINIDAD       CLOUDY    29  21  72 NW9       29.96S WCI  20
$$

COZ042>045-048>051-090-091-171600-
...NORTHEAST COLORADO...

CITY           SKY/WX    TMP DP  RH WIND       PRES   REMARKS
GREELEY ARPT   CLOUDY    18  10  73 CALM      30.00S
AKRON          FOG       17  16  95 S10       30.01S VSB 1/4 WCI   5
BURLINGTON     FOG       23  21  92 SE7       30.04S VSB 1/4 WCI  15
WRAY           FOG       23  23 100 E6        30.09S VSB 1   WCI  16
STERLING       FOG       23  21  93 W3        30.04F VSB 1/2
HOLYOKE        NOT AVBL
FORT MORGAN    MOCLDY    11   8  89 NE5       30.02S WCI   3
$$

COZ086-089-092>099-171600-
...SOUTHEAST COLORADO...

CITY           SKY/WX    TMP DP  RH WIND       PRES   REMARKS
PUEBLO         CLOUDY    22  17  81 CALM      30.00
LA JUNTA       CLOUDY    25  21  85 N7        30.01S WCI  17
LAMAR          CLOUDY    26  23  88 N7        30.01S WCI  18
SPRINGFIELD      N/A     26  23  88 CALM      29.99R
$$



USA.gov is the U.S. government's official web portal to all federal, state and local government web resources and services.